Location: Peterborough
(44.3091°N, 78.3197°W)
Time: 09:21:28
(UTC-04:00)

A-11 Canister half - Pass Details

Date: 12 September 2024
Orbit: 1515 x 1684 km, 47.2° (Epoch: 02 October)

Event Time Altitude Azimuth Distance (km) Brightness Sun altitude
Rises 23:33:19 0° 275° (W) 4,678 12.0 -37.5°
Reaches altitude 10° 23:36:23 10° 278° (W) 3,686 11.3 -37.8°
Enters shadow 23:45:35 75° 359° (N) 1,563 8.9 -38.5°
